ION Passionate Paula

operational
NORAD ID: 64545 Int'l Des: 2025-135 Owner: DORBIT Country: I
LEOCIRCULARRETROGRADESSO

关于 ION Passionate Paula

正在加载描述...

实时位置

正在加载3D地球...

即将过境

高度历史

Altitude vs Time

uPlot chart will show altitude changes over time

两行轨道根数

1 64545U 25135T 25341.27556074 .00007079 00000-0 33924-3 0 9998
2 64545 97.4580 93.3382 0002765 103.6163 256.5380 15.19226900 25693
Epoch: Dec 7, 2025 • Age: 22 hours

当前状态

高度 537.3 km
速度 7.59 km/s
星下点 -75.83°S, 101.58°E
发射日期 Jun 23, 2025
运行时间 0.4 years
类型 other

技术详情

分类 Payload
质量 150.00 kg
干质量 150.00 kg
总质量 220.00 kg
长度 0.40 m
直径 0.40 m
跨度 0.40 m
形状 Box
制造商 DORBIT
平台类型 ION-SC
阶段状态 In Orbit
所有者/国家 DORBIT/I

大型星座

Loading constellations...